Skip Page Navigation
NASA JPL Caltech
NASA Logo - Jet Propulsion Laboratory + View the NASA Portal
+ Center for Near-Earth Object Studies
JPL Home Earth Solar System Stars & Galaxies Technology
JPL Solar System Dynamics
BODIES ORBITS EPHEMERIDES TOOLS PHYSICAL DATA DISCOVERY FAQ SITE MAP
IMPORTANT: The SSD Announcement email list is now available. Major changes are coming in the near future, including possible hostname and/or URL changes. To be notified of such changes, subscribe to this email list.

Please visit this page for more details.


JPL Small-Body Database Browser
Search: [ help ]  
359063 (2008 YF88)
Classification: Main-belt Asteroid          SPK-ID: 2359063
Ephemeris | Orbit Diagram | Orbital Elements | Mission Design | Physical Parameters | Discovery Circumstances | Close-Approach Data ]

[ show orbit diagram ]
Orbital Elements at Epoch 2459000.5 (2020-May-31.0) TDB
Reference: JPL 16 (heliocentric ecliptic J2000)
 Element Value Uncertainty (1-sigma)   Units 
e .1568210201335171 4.2775e-08  
a 2.419106552169052 1.7381e-08 au
q 2.039739794846226 1.0683e-07 au
i 3.212152224963336 4.874e-06 deg
node 98.73741707808769 9.0722e-05 deg
peri 58.86848095211573 9.2129e-05 deg
M 331.0078917206225 1.7569e-05 deg
tp 2459111.177214590156
(2020-Sep-18.67721459)
6.7558e-05 TDB
period 1374.298028570681
3.76
1.4811e-05
4.055e-08
d
yr
n .2619519147345447 2.8231e-09 deg/d
Q 2.798473309491877 2.0107e-08 au
  Orbit Determination Parameters
   # obs. used (total)      190  
   data-arc span      7024 days (19.23 yr)  
   first obs. used      2000-10-29  
   last obs. used      2020-01-22  
   planetary ephem.      DE431  
   SB-pert. ephem.      SB431-N16  
   condition code      0  
   norm. resid. RMS      .53731  
   source      ORB  
   producer      Otto Matic  
   solution date      2020-Feb-26 00:41:23  

Additional Information
 Earth MOID = 1.05137 au 
 Jupiter MOID = 2.18853 au 
 T_jup = 3.496 
[ show covariance matrix ]

Ephemeris | Orbit Diagram | Orbital Elements | Mission Design | Physical Parameters | Discovery Circumstances | Close-Approach Data ]

Physical Parameter Table
Parameter Symbol Value Units Sigma Reference Notes
absolute magnitude H 17.3   n/a MPO455590  

359063 (2008 YF88)          Discovered 2008-Dec-29 by Spacewatch at Kitt Peak
Reference: 20130327/Numbers.arcLast Updated: 2013-03-29

[ show close-approach data ]
Alternate Designations
 2008 YF88 = 2002 GZ142 
Ephemeris | Orbit Diagram | Orbital Elements | Mission Design | Physical Parameters | Discovery Circumstances | Close-Approach Data ]
ABOUT SSD CREDITS/AWARDS PRIVACY/COPYRIGHT GLOSSARY LINKS
FirstGov 2020-Jun-01 03:26 UT
(server date/time)  
NASA Home Page
Site Manager:   Ryan S. Park
Webmaster  Alan B. Chamberlin